Test XHTML 1.0 Strict Page for WU-History Testing
Histórico de la Estación METEOCORUÑA
 
Diario Datos del Noviembre 15, 2018 Unidades:  Metrico    Inglés   Ambos
« Prev Dia
Sig Dia »
Diario Semanal Mensual Anual Rango
  Actual: Max: Min: Media:
Temp: -9.3 °C -17.8 °C -10.3 °C -9.9 °C
Rocío: -11.7 °C -17.8 °C -12.2 °C -12.1 °C
Humedad: 76 % Humidity % 75 % 76 %
Vel. viento: 7.7 km/h 0 km/h 0 km/h 7.4 km/h
Racha: 23.3 km/h 0 km/h - -
Viento:ESE - - ESE
Presión: 34384.8 hPa 0 hPa 34313.7 hPa -
Lluvia: 0 mm      
Historical Graphs
 
 
Busqueda de Noviembre 15, 2018
Hora Temp Rocío Presión Viento Vel. viento Racha Humedad Ratio lluvia (/hora) Radiación
-17.8 °C -17.8 °C 0 hPa Calm     Humidity % 0 mm SolarRadiationWatts/m^2 W/m2
00:04 -10 °C -12 °C 34334 hPa East 5.1 km/h 15.6 km/h 79 % 0 mm 0.00 W/m2
00:09 -10.1 °C -12.1 °C 34334 hPa East 7.7 km/h 20.8 km/h 79 % 0 mm 0.00 W/m2
00:14 -10.1 °C -12.1 °C 34334 hPa East 10.3 km/h 23.3 km/h 79 % 0 mm 0.00 W/m2
00:19 -10.1 °C -12 °C 34334 hPa East 10.3 km/h 18.2 km/h 80 % 0 mm 0.00 W/m2
00:24 -10.2 °C -12.1 °C 34330.7 hPa East 10.3 km/h 15.6 km/h 80 % 0 mm 0.00 W/m2
00:29 -10.2 °C -12.1 °C 34327.3 hPa East 5.1 km/h 7.7 km/h 80 % 0 mm 0.00 W/m2
00:34 -10.2 °C -12.1 °C 34323.9 hPa East 2.6 km/h 12.9 km/h 80 % 0 mm 0.00 W/m2
00:39 -10.2 °C -12.1 °C 34323.9 hPa East 5.1 km/h 15.6 km/h 80 % 0 mm 0.00 W/m2
00:44 -10.2 °C -12.1 °C 34323.9 hPa East 5.1 km/h 15.6 km/h 80 % 0 mm 0.00 W/m2
00:49 -10.2 °C -12.1 °C 34323.9 hPa East 5.1 km/h 18.2 km/h 80 % 0 mm 0.00 W/m2
00:54 -10.3 °C -12.2 °C 34323.9 hPa East 7.7 km/h 12.9 km/h 80 % 0 mm 0.00 W/m2
00:59 -10.3 °C -12.1 °C 34327.3 hPa East 5.1 km/h 12.9 km/h 81 % 0 mm 0.00 W/m2
01:04 -10.2 °C -12 °C 34320.5 hPa East 7.7 km/h 18.2 km/h 81 % 0 mm 0.00 W/m2
01:09 -10.2 °C -12.1 °C 34320.5 hPa East 7.7 km/h 20.8 km/h 80 % 0 mm 0.00 W/m2
01:14 -10.2 °C -12.1 °C 34317.1 hPa East 7.7 km/h 23.3 km/h 80 % 0 mm 0.00 W/m2
01:19 -10.2 °C -12.1 °C 34317.1 hPa East 12.9 km/h 28.5 km/h 80 % 0 mm 0.00 W/m2
01:24 -10.2 °C -12.1 °C 34313.7 hPa East 20.8 km/h 33.6 km/h 80 % 0 mm 0.00 W/m2
01:29 -10.2 °C -12.1 °C 34313.7 hPa East 20.8 km/h 33.6 km/h 80 % 0 mm 0.00 W/m2
01:34 -10.1 °C -12 °C 34313.7 hPa East 20.8 km/h 25.9 km/h 80 % 0 mm 0.00 W/m2
01:39 -10.1 °C -12.1 °C 34317.1 hPa East 18.2 km/h 23.3 km/h 79 % 0 mm 0.00 W/m2
01:44 -10.1 °C -12.1 °C 34320.5 hPa ESE 15.6 km/h 20.8 km/h 79 % 0 mm 0.00 W/m2
01:49 -9.9 °C -11.9 °C 34320.5 hPa SSE 7.7 km/h 20.8 km/h 79 % 0 mm 0.00 W/m2
01:54 -9.8 °C -11.9 °C 34320.5 hPa SSE 7.7 km/h 18.2 km/h 78 % 0 mm 0.00 W/m2
01:59 -9.8 °C -12 °C 34320.5 hPa ESE 7.7 km/h 18.2 km/h 77 % 0 mm 0.00 W/m2
02:04 -9.8 °C -12.1 °C 34317.1 hPa ESE 5.1 km/h 12.9 km/h 77 % 0 mm 0.00 W/m2
02:09 -9.8 °C -12 °C 34320.5 hPa ESE 5.1 km/h 7.7 km/h 77 % 0 mm 0.00 W/m2
02:14 -9.8 °C -12.2 °C 34317.1 hPa ESE 2.6 km/h 5.1 km/h 76 % 0 mm 0.00 W/m2
02:19 -9.9 °C -12.1 °C 34317.1 hPa ESE 2.6 km/h 2.6 km/h 77 % 0 mm 0.00 W/m2
02:24 -9.9 °C -12.2 °C 34317.1 hPa Calm   7.7 km/h 77 % 0 mm 0.00 W/m2
02:29 -10 °C -12.2 °C 34320.5 hPa ESE 2.6 km/h 7.7 km/h 77 % 0 mm 0.00 W/m2
02:34 -9.9 °C -12 °C 34320.5 hPa ESE 5.1 km/h 10.3 km/h 78 % 0 mm 0.00 W/m2
02:39 -9.8 °C -12.1 °C 34320.5 hPa ESE 5.1 km/h 18.2 km/h 77 % 0 mm 0.00 W/m2
02:44 -9.8 °C -12.1 °C 34323.9 hPa ESE 5.1 km/h 12.9 km/h 77 % 0 mm 0.00 W/m2
02:49 -9.9 °C -12.2 °C 34320.5 hPa East 7.7 km/h 12.9 km/h 76 % 0 mm 0.00 W/m2
02:54 -9.9 °C -12.1 °C 34323.9 hPa East 5.1 km/h 2.6 km/h 77 % 0 mm 0.00 W/m2
02:59 -9.9 °C -12.1 °C 34327.3 hPa East 2.6 km/h 5.1 km/h 77 % 0 mm 0.00 W/m2
03:04 -9.9 °C -12.1 °C 34327.3 hPa East 2.6 km/h 12.9 km/h 77 % 0 mm 0.00 W/m2
03:09 -9.8 °C -12.2 °C 34327.3 hPa East 2.6 km/h 2.6 km/h 76 % 0 mm 0.00 W/m2
03:14 -9.8 °C -12.1 °C 34330.7 hPa East 2.6 km/h 5.1 km/h 76 % 0 mm 0.00 W/m2
03:19 -9.7 °C -12.1 °C 34330.7 hPa Calm   2.6 km/h 76 % 0 mm 0.00 W/m2
03:24 -9.8 °C -12.2 °C 34330.7 hPa Calm   7.7 km/h 75 % 0 mm 0.00 W/m2
03:29 -9.8 °C -12.1 °C 34330.7 hPa East 2.6 km/h 12.9 km/h 76 % 0 mm 0.00 W/m2
03:34 -9.8 °C -12.2 °C 34327.3 hPa East 2.6 km/h 7.7 km/h 76 % 0 mm 0.00 W/m2
03:39 -9.9 °C -12.2 °C 34327.3 hPa East 2.6 km/h 5.1 km/h 76 % 0 mm 0.00 W/m2
03:44 -9.9 °C -12.2 °C 34330.7 hPa East 2.6 km/h 7.7 km/h 77 % 0 mm 0.00 W/m2
03:49 -10.1 °C -12.2 °C 34330.7 hPa East 2.6 km/h 7.7 km/h 78 % 0 mm 0.00 W/m2
03:54 -10.1 °C -12.2 °C 34330.7 hPa East 2.6 km/h 5.1 km/h 78 % 0 mm 0.00 W/m2
03:59 -10.1 °C -12.2 °C 34330.7 hPa East 2.6 km/h 5.1 km/h 78 % 0 mm 0.00 W/m2
04:04 -10.1 °C -12.2 °C 34330.7 hPa Calm   2.6 km/h 78 % 0 mm 0.00 W/m2
04:09 -10.1 °C -12.2 °C 34330.7 hPa Calm   5.1 km/h 78 % 0 mm 0.00 W/m2
04:14 -10 °C -12.1 °C 34330.7 hPa Calm   5.1 km/h 78 % 0 mm 0.00 W/m2
04:19 -9.9 °C -12.1 °C 34330.7 hPa East 2.6 km/h 12.9 km/h 78 % 0 mm 0.00 W/m2
04:24 -9.9 °C -12.1 °C 34330.7 hPa ESE 2.6 km/h 10.3 km/h 77 % 0 mm 0.00 W/m2
04:29 -9.9 °C -12.1 °C 34330.7 hPa ESE 2.6 km/h 10.3 km/h 77 % 0 mm 0.00 W/m2
04:34 -9.8 °C -12.1 °C 34327.3 hPa ESE 2.6 km/h 20.8 km/h 76 % 0 mm 0.00 W/m2
04:39 -9.7 °C -12 °C 34330.7 hPa ESE 7.7 km/h 28.5 km/h 76 % 0 mm 0.00 W/m2
04:44 -9.7 °C -12 °C 34330.7 hPa ESE 7.7 km/h 20.8 km/h 76 % 0 mm 0.00 W/m2
04:49 -9.6 °C -12.1 °C 34330.7 hPa ESE 5.1 km/h 23.3 km/h 75 % 0 mm 0.00 W/m2
04:54 -9.6 °C -12.1 °C 34330.7 hPa ESE 7.7 km/h 28.5 km/h 75 % 0 mm 0.00 W/m2
04:59 -9.6 °C -12 °C 34330.7 hPa SE 7.7 km/h 23.3 km/h 75 % 0 mm 0.00 W/m2
05:04 -9.6 °C -12 °C 34334 hPa ESE 7.7 km/h 20.8 km/h 75 % 0 mm 0.00 W/m2
05:09 -9.6 °C -12.1 °C 34334 hPa ESE 7.7 km/h 18.2 km/h 75 % 0 mm 0.00 W/m2
05:14 -9.6 °C -12.1 °C 34334 hPa ESE 5.1 km/h 18.2 km/h 75 % 0 mm 0.00 W/m2
05:19 -9.7 °C -12.1 °C 34334 hPa ESE 5.1 km/h 18.2 km/h 75 % 0 mm 0.00 W/m2
05:24 -9.7 °C -12.2 °C 34330.7 hPa ESE 7.7 km/h 20.8 km/h 75 % 0 mm 0.00 W/m2
05:29 -9.8 °C -12.2 °C 34330.7 hPa ESE 7.7 km/h 23.3 km/h 75 % 0 mm 0.00 W/m2
05:34 -9.8 °C -12.1 °C 34334 hPa ESE 10.3 km/h 28.5 km/h 76 % 0 mm 0.00 W/m2
05:39 -9.7 °C -12.1 °C 34330.7 hPa ESE 10.3 km/h 25.9 km/h 76 % 0 mm 0.00 W/m2
05:44 -9.7 °C -12.1 °C 34334 hPa SE 10.3 km/h 25.9 km/h 75 % 0 mm 0.00 W/m2
05:49 -9.7 °C -12.1 °C 34330.7 hPa SE 10.3 km/h 23.3 km/h 75 % 0 mm 0.00 W/m2
05:54 -9.7 °C -12.1 °C 34330.7 hPa SE 10.3 km/h 23.3 km/h 75 % 0 mm 0.00 W/m2
05:59 -9.7 °C -12.1 °C 34334 hPa SE 10.3 km/h 25.9 km/h 75 % 0 mm 0.00 W/m2
06:04 -9.7 °C -12.1 °C 34337.4 hPa ESE 10.3 km/h 31.1 km/h 75 % 0 mm 0.00 W/m2
06:09 -9.7 °C -12.1 °C 34337.4 hPa SE 12.9 km/h 25.9 km/h 75 % 0 mm 0.00 W/m2
06:14 -9.7 °C -12.1 °C 34337.4 hPa SE 12.9 km/h 31.1 km/h 75 % 0 mm 0.00 W/m2
06:19 -9.7 °C -12.1 °C 34337.4 hPa SE 12.9 km/h 23.3 km/h 75 % 0 mm 0.00 W/m2
06:24 -9.7 °C -12.1 °C 34334 hPa SE 12.9 km/h 31.1 km/h 75 % 0 mm 0.00 W/m2
06:29 -9.6 °C -12.1 °C 34337.4 hPa SE 12.9 km/h 25.9 km/h 75 % 0 mm 0.00 W/m2
06:34 -9.6 °C -12.1 °C 34337.4 hPa SE 12.9 km/h 25.9 km/h 75 % 0 mm 0.00 W/m2
06:39 -9.6 °C -12 °C 34340.8 hPa SE 15.6 km/h 28.5 km/h 75 % 0 mm 0.00 W/m2
06:44 -9.6 °C -12 °C 34340.8 hPa SE 12.9 km/h 31.1 km/h 75 % 0 mm 0.00 W/m2
06:49 -9.6 °C -12.1 °C 34344.2 hPa SE 12.9 km/h 20.8 km/h 75 % 0 mm 0.00 W/m2
06:54 -9.6 °C -12 °C 34347.6 hPa SE 10.3 km/h 31.1 km/h 75 % 0 mm 0.00 W/m2
06:59 -9.6 °C -12 °C 34347.6 hPa SE 12.9 km/h 36.2 km/h 75 % 0 mm 0.00 W/m2
07:04 -9.6 °C -12 °C 34347.6 hPa SE 15.6 km/h 25.9 km/h 75 % 0 mm 0.00 W/m2
07:09 -9.6 °C -12 °C 34347.6 hPa SE 12.9 km/h 28.5 km/h 75 % 0 mm 0.00 W/m2
07:14 -9.6 °C -11.9 °C 34351 hPa ESE 12.9 km/h 28.5 km/h 76 % 0 mm 0.00 W/m2
07:19 -9.6 °C -11.9 °C 34347.6 hPa ESE 12.9 km/h 18.2 km/h 76 % 0 mm 0.00 W/m2
07:24 -9.6 °C -11.9 °C 34351 hPa ESE 7.7 km/h 12.9 km/h 76 % 0 mm 0.00 W/m2
07:29 -9.7 °C -12 °C 34354.4 hPa ESE 5.1 km/h 33.6 km/h 76 % 0 mm 0.00 W/m2
07:34 -9.8 °C -12 °C 34354.4 hPa ESE 5.1 km/h 10.3 km/h 77 % 0 mm 0.00 W/m2
07:39 -9.8 °C -12.1 °C 34357.7 hPa ESE 5.1 km/h 18.2 km/h 77 % 0 mm 0.00 W/m2
07:44 -9.8 °C -12.1 °C 34357.7 hPa ESE 5.1 km/h 25.9 km/h 77 % 0 mm 0.00 W/m2
07:49 -9.8 °C -11.9 °C 34361.1 hPa ESE 7.7 km/h 28.5 km/h 78 % 0 mm 0.00 W/m2
07:54 -9.8 °C -11.9 °C 34361.1 hPa ESE 7.7 km/h 20.8 km/h 78 % 0 mm 0.00 W/m2
07:59 -9.8 °C -11.9 °C 34364.5 hPa ESE 7.7 km/h 20.8 km/h 78 % 0 mm 0.00 W/m2
08:04 -9.8 °C -11.9 °C 34364.5 hPa SE 7.7 km/h 28.5 km/h 78 % 0 mm 0.00 W/m2
08:09 -9.8 °C -11.9 °C 34367.9 hPa SE 12.9 km/h 25.9 km/h 78 % 0 mm 0.00 W/m2
08:14 -9.7 °C -11.8 °C 34367.9 hPa SE 12.9 km/h 31.1 km/h 78 % 0 mm 0.00 W/m2
08:19 -9.6 °C -11.8 °C 34367.9 hPa SE 10.3 km/h 23.3 km/h 77 % 0 mm 0.00 W/m2
08:24 -9.6 °C -11.8 °C 34371.3 hPa SE 7.7 km/h 20.8 km/h 77 % 0 mm 0.00 W/m2
08:29 -9.6 °C -11.8 °C 34374.7 hPa SE 7.7 km/h 12.9 km/h 77 % 0 mm 0.00 W/m2
08:34 -9.6 °C -11.8 °C 34371.3 hPa SE 7.7 km/h 15.6 km/h 77 % 0 mm 0.00 W/m2
08:39 -9.6 °C -11.8 °C 34374.7 hPa SE 5.1 km/h 10.3 km/h 77 % 0 mm 5.00 W/m2
08:44 -9.6 °C -11.8 °C 34378.1 hPa ESE 5.1 km/h 18.2 km/h 77 % 0 mm 9.00 W/m2
08:49 -9.6 °C -11.8 °C 34378.1 hPa ESE 5.1 km/h 12.9 km/h 77 % 0 mm 11.00 W/m2
08:54 -9.6 °C -11.8 °C 34381.4 hPa ESE 5.1 km/h 5.1 km/h 77 % 0 mm 12.00 W/m2
08:59 -9.6 °C -11.7 °C 34381.4 hPa SE 2.6 km/h 18.2 km/h 78 % 0 mm 18.00 W/m2
09:04 -9.6 °C -11.7 °C 34381.4 hPa ESE 5.1 km/h 12.9 km/h 78 % 0 mm 23.00 W/m2
09:09 -9.6 °C -11.8 °C 34381.4 hPa ESE 5.1 km/h 20.8 km/h 77 % 0 mm 33.00 W/m2
09:14 -9.5 °C -11.7 °C 34381.4 hPa ESE 5.1 km/h 25.9 km/h 77 % 0 mm 40.00 W/m2
09:19 -9.4 °C -11.7 °C 34384.8 hPa ESE 7.7 km/h 23.3 km/h 77 % 0 mm 42.00 W/m2
09:24 -9.3 °C -11.6 °C 34384.8 hPa SE 7.7 km/h 23.3 km/h 77 % 0 mm 42.00 W/m2
09:29 -9.3 °C -11.7 °C 34384.8 hPa ESE 7.7 km/h 23.3 km/h 76 % 0 mm 42.00 W/m2
Meteocoruña
Agradecimientos a Weather Underground - 2 mb